IK1GVQ Weather Reports


time (UTC)temp
C
wind
direction
speed
KPH
gust
KPH
rain 1hr
cm
rain 24hr
cm
rain mn
cm
humidity
%
barometer
mb
20260507074503 15 158 3.2 4.8 0.00 0.23 0.00 76 1013.5
20260507074003 15 186 1.6 4.8 0.00 0.23 0.00 75 1013.4
20260507073504 15 225 1.6 6.4 0.00 0.23 0.00 77 1013.5
20260507073004 15 171 1.6 6.4 0.00 0.25 0.00 76 1013.5
20260507072503 15 188 1.6 8.0 0.00 0.30 0.00 78 1013.5
20260507072003 14 211 1.6 8.0 0.00 0.33 0.00 78 1013.3
20260507071504 14 0 0.0 0.0 0.00 0.33 0.00 80 1013.3
20260507071003 14 0 0.0 0.0 0.00 0.36 0.00 80 1013.4
20260507070717 14 0 0.0 0.0 0.00 0.36 0.00 80 1013.3
20260507070007 14 0 0.0 0.0 0.00 0.41 0.00 81 1013.2
20260507065503 13 0 0.0 0.0 0.00 0.43 0.00 80 1013.2
20260507065216 13 0 0.0 0.0 0.00 0.46 0.00 80 1013.2
20260507064504 13 0 0.0 0.0 0.00 0.79 0.00 79 1013.2
20260507064003 13 0 0.0 0.0 0.00 0.91 0.00 78 1013.1
20260507063503 13 0 0.0 0.0 0.00 1.02 0.00 78 1013.1
20260507063004 13 0 0.0 0.0 0.00 1.04 0.00 77 1013.2
20260507062504 12 0 0.0 0.0 0.00 1.04 0.00 72 1013.1
20260507062213 12 0 0.0 0.0 0.00 1.07 0.00 70 1013.1
20260507061503 12 0 0.0 0.0 0.00 1.07 0.00 68 1013.0
20260507061214 12 0 0.0 0.0 0.00 1.09 0.00 65 1013.1
20260507060503 11 0 0.0 0.0 0.00 1.09 0.00 61 1013.1
20260507060004 11 0 0.0 0.0 0.00 1.09 0.00 63 1013.0
20260507055503 10 0 0.0 0.0 0.00 1.14 0.00 60 1013.0
20260507055003 10 0 0.0 0.0 0.00 1.17 0.00 60 1012.9
20260507054503 10 0 0.0 0.0 0.00 1.22 0.00 58 1012.8
20260507054003 10 0 0.0 0.0 0.00 1.27 0.00 58 1012.8
20260507053503 9 0 0.0 0.0 0.00 1.27 0.00 62 1012.7
20260507053004 9 0 0.0 0.0 0.00 1.27 0.00 64 1012.6
20260507052503 9 0 0.0 0.0 0.00 1.27 0.00 64 1012.6
20260507052214 9 0 0.0 0.0 0.00 1.27 0.00 65 1012.6
20260507051503 9 0 0.0 0.0 0.00 1.27 0.00 65 1012.4
20260507051003 9 0 0.0 0.0 0.00 1.27 0.00 67 1012.4
20260507050504 9 0 0.0 0.0 0.00 1.27 0.00 67 1012.3
20260507050216 9 0 0.0 0.0 0.00 1.27 0.00 67 1012.2
20260507045714 9 0 0.0 0.0 0.00 1.27 0.00 67 1012.2
20260507045004 9 0 0.0 0.0 0.00 1.27 0.00 68 1012.2
20260507044504 9 0 0.0 0.0 0.00 1.30 0.00 68 1012.1
20260507044003 9 0 0.0 0.0 0.00 1.32 0.00 69 1012.1
20260507043716 9 0 0.0 0.0 0.00 1.35 0.00 69 1012.1
20260507043003 9 0 0.0 0.0 0.00 1.37 0.00 70 1012.0
20260507042503 10 0 0.0 0.0 0.00 1.37 0.00 70 1011.8
20260507042003 10 0 0.0 0.0 0.00 1.40 0.00 70 1011.8
20260507041503 10 0 0.0 0.0 0.00 1.42 0.00 70 1011.7
20260507041216 10 0 0.0 0.0 0.00 1.42 0.00 70 1011.7
20260507040503 10 0 0.0 0.0 0.00 1.45 0.00 71 1011.6
20260507040003 10 0 0.0 0.0 0.00 1.47 0.00 72 1011.7
20260507035503 10 0 0.0 0.0 0.00 1.50 0.00 72 1011.6
20260507035004 10 0 0.0 0.0 0.00 1.55 0.00 72 1011.6
20260507034503 10 0 0.0 0.0 0.00 1.55 0.00 72 1011.5
20260507034003 10 0 0.0 0.0 0.00 1.55 0.00 72 1011.5
20260507033503 10 0 0.0 0.0 0.00 1.57 0.00 71 1011.5
20260507033003 10 0 0.0 0.0 0.00 1.57 0.00 71 1011.5
20260507032504 10 0 0.0 0.0 0.00 1.57 0.00 71 1011.5
20260507032003 10 0 0.0 0.0 0.00 1.57 0.00 71 1011.5
20260507031503 10 0 0.0 0.0 0.00 1.57 0.00 71 1011.5
20260507031003 10 0 0.0 0.0 0.00 1.57 0.00 72 1011.5
20260507030504 10 0 0.0 0.0 0.00 1.57 0.00 73 1011.5
20260507030004 10 0 0.0 0.0 0.00 1.57 0.00 73 1011.5
20260507025503 10 0 0.0 0.0 0.00 1.57 0.00 75 1011.6
20260507025003 10 0 0.0 0.0 0.00 1.57 0.00 75 1011.6
20260507024503 10 0 0.0 0.0 0.00 1.57 0.00 76 1011.6
20260507024003 10 0 0.0 0.0 0.00 1.57 0.00 76 1011.5
20260507023503 11 0 0.0 0.0 0.00 1.57 0.00 77 1011.5
20260507023003 11 0 0.0 0.0 0.00 1.57 0.00 77 1011.4
20260507022503 11 0 0.0 0.0 0.00 1.57 0.00 77 1011.4
20260507022003 11 0 0.0 0.0 0.00 1.57 0.00 77 1011.5
20260507021503 11 0 0.0 0.0 0.00 1.57 0.00 78 1011.5
20260507021003 11 0 0.0 0.0 0.00 1.57 0.00 78 1011.5
20260507020503 11 0 0.0 0.0 0.00 1.57 0.00 78 1011.6
20260507020003 11 0 0.0 0.0 0.00 1.57 0.00 79 1011.5
20260507015503 11 0 0.0 0.0 0.00 1.57 0.00 79 1011.5
20260507015004 11 0 0.0 0.0 0.00 1.57 0.00 80 1011.4
20260507014503 11 0 0.0 0.0 0.00 1.57 0.00 80 1011.4
20260507014215 11 0 0.0 0.0 0.00 1.57 0.00 80 1011.3
20260507013712 11 0 0.0 0.0 0.00 1.57 0.00 80 1011.4
20260507013003 11 0 0.0 0.0 0.00 1.57 0.00 80 1011.3
20260507012503 11 0 0.0 0.0 0.00 1.57 0.00 80 1011.3
20260507012004 11 0 0.0 0.0 0.00 1.60 0.00 80 1011.3
20260507011503 11 0 0.0 0.0 0.00 1.60 0.00 80 1011.4
20260507011003 11 0 0.0 0.0 0.00 1.60 0.00 80 1011.4
20260507010503 11 0 0.0 0.0 0.00 1.60 0.00 80 1011.4
20260507010004 11 0 0.0 0.0 0.00 1.60 0.00 81 1011.4
20260507005503 11 0 0.0 0.0 0.00 1.60 0.00 81 1011.4
20260507005003 11 0 0.0 0.0 0.00 1.63 0.00 81 1011.4
20260507004503 11 0 0.0 0.0 0.00 1.63 0.00 81 1011.3
20260507004003 11 0 0.0 0.0 0.00 1.63 0.00 81 1011.3
20260507003503 11 0 0.0 0.0 0.00 1.63 0.00 81 1011.2
20260507003003 11 0 0.0 0.0 0.00 1.63 0.00 81 1011.2
20260507002714 11 0 0.0 0.0 0.00 1.63 0.00 81 1011.2
20260507002004 11 0 0.0 0.0 0.00 1.63 0.00 81 1011.2
20260507001504 12 0 0.0 0.0 0.00 1.63 0.00 81 1011.1
20260507001218 12 0 0.0 0.0 0.00 1.63 0.00 81 1011.1
20260507000503 12 0 0.0 0.0 0.00 1.63 0.00 81 1011.0
20260507000214 12 0 0.0 0.0 0.00 1.63 0.00 81 1011.0
20260506235503 12 0 0.0 0.0 0.00 1.63 0.00 81 1010.9
20260506235215 12 0 0.0 0.0 0.00 1.63 0.00 81 1010.9
20260506234503 12 0 0.0 0.0 0.00 1.63 0.00 80 1010.9
20260506234003 12 0 0.0 0.0 0.00 1.63 0.00 80 1010.9
20260506233504 12 0 0.0 0.0 0.00 1.63 0.00 80 1010.9
20260506233217 12 0 0.0 0.0 0.00 1.63 0.00 80 1010.8
20260506232504 12 0 0.0 0.0 0.00 1.63 0.00 81 1010.8
20260506232004 12 0 0.0 0.0 0.00 1.63 0.00 81 1010.8
20260506231504 12 0 0.0 0.0 0.00 1.63 0.00 81 1010.7
20260506231003 12 0 0.0 0.0 0.00 1.63 0.00 81 1010.7
20260506230503 12 0 0.0 0.0 0.00 1.63 0.00 81 1010.6
20260506230003 12 0 0.0 0.0 0.00 1.63 0.00 81 1010.7
20260506225503 13 0 0.0 0.0 0.00 1.63 0.00 82 1010.7
20260506225003 13 0 0.0 0.0 0.00 1.63 0.00 81 1010.7
20260506224503 13 309 0.0 3.2 0.00 1.63 0.00 82 1010.7
20260506224003 13 285 0.0 4.8 0.00 1.63 0.00 82 1010.7
20260506223504 13 280 0.0 4.8 0.00 1.63 0.00 81 1010.6
20260506223003 13 50 0.0 3.2 0.00 1.63 0.00 81 1010.5
20260506222503 13 68 0.0 8.0 0.00 1.63 0.00 81 1010.4
20260506222003 13 71 0.0 8.0 0.00 1.63 0.00 81 1010.3
20260506221504 13 71 0.0 1.6 0.00 1.63 0.00 81 1010.4
20260506221003 13 0 0.0 0.0 0.00 1.63 0.00 81 1010.5
20260506220503 13 0 0.0 0.0 0.00 1.63 0.00 81 1010.6
20260506220005 13 0 0.0 0.0 0.00 1.63 0.00 81 1010.8
20260506215503 14 0 0.0 0.0 0.00 1.63 1.63 80 1010.7
20260506215215 14 0 0.0 0.0 0.00 1.63 1.63 80 1010.7
20260506214503 14 0 0.0 0.0 0.00 1.63 1.63 80 1010.6
20260506214004 14 341 0.0 1.6 0.00 1.63 1.63 80 1010.6
20260506213714 14 341 0.0 1.6 0.00 1.63 1.63 80 1010.6
20260506213004 13 0 0.0 0.0 0.00 1.63 1.63 80 1010.6
20260506212503 13 0 0.0 0.0 0.00 1.63 1.63 80 1010.5
20260506212003 13 0 0.0 0.0 0.00 1.63 1.63 80 1010.5
20260506211503 13 0 0.0 0.0 0.00 1.63 1.63 80 1010.4
20260506211003 14 0 0.0 0.0 0.00 1.63 1.63 79 1010.4
20260506210503 14 73 0.0 1.6 0.00 1.63 1.63 79 1010.4
20260506210004 14 70 0.0 1.6 0.00 1.63 1.63 79 1010.3
20260506205503 14 64 0.0 1.6 0.00 1.63 1.63 79 1010.3
20260506205003 14 0 0.0 0.0 0.00 1.63 1.63 79 1010.2
20260506204503 14 0 0.0 0.0 0.00 1.63 1.63 79 1010.1
20260506204003 14 0 0.0 0.0 0.00 1.63 1.63 79 1010.1
20260506203504 14 56 0.0 1.6 0.00 1.63 1.63 79 1010.0
20260506203003 14 28 0.0 3.2 0.00 1.63 1.63 78 1010.0
20260506202503 14 19 0.0 3.2 0.00 1.63 1.63 78 1010.0
20260506202003 14 0 0.0 0.0 0.00 1.63 1.63 78 1009.9
20260506201503 14 29 0.0 1.6 0.00 1.63 1.63 78 1009.8
20260506201215 14 29 0.0 1.6 0.00 1.63 1.63 78 1009.8
20260506200713 14 16 0.0 1.6 0.00 1.63 1.63 78 1009.8
20260506200216 14 355 0.0 1.6 0.00 1.63 1.63 78 1009.7
20260506195504 14 24 0.0 1.6 0.00 1.63 1.63 77 1009.6
20260506195003 14 35 0.0 1.6 0.00 1.63 1.63 77 1009.4
20260506194715 14 35 0.0 1.6 0.00 1.63 1.63 77 1009.3
20260506194003 14 9 0.0 3.2 0.00 1.63 1.63 77 1009.2
20260506193504 14 15 0.0 3.2 0.00 1.63 1.63 77 1009.2
20260506193003 15 55 0.0 1.6 0.00 1.63 1.63 77 1009.1
20260506192503 15 5 0.0 1.6 0.00 1.63 1.63 77 1009.0
20260506192004 15 348 0.0 3.2 0.00 1.63 1.63 77 1008.9
20260506191505 15 342 0.0 4.8 0.00 1.63 1.63 77 1008.8
20260506191003 15 339 0.0 4.8 0.00 1.63 1.63 77 1008.7
20260506190713 15 8 0.0 4.8 0.00 1.63 1.63 77 1008.6
20260506190004 15 9 0.0 4.8 0.00 1.63 1.63 78 1008.5
20260506185504 15 352 0.0 4.8 0.00 1.63 1.63 78 1008.4
20260506185003 15 67 0.0 1.6 0.00 1.63 1.63 78 1008.4
20260506184715 15 50 0.0 3.2 0.00 1.63 1.63 78 1008.3
20260506184004 15 48 0.0 3.2 0.00 1.63 1.63 78 1008.2
20260506183716 15 60 0.0 1.6 0.00 1.63 1.63 78 1008.2
20260506183004 15 19 0.0 3.2 0.00 1.63 1.63 79 1008.1
20260506182503 15 19 0.0 3.2 0.00 1.63 1.63 79 1007.9
20260506182004 15 0 0.0 0.0 0.00 1.63 1.63 79 1007.8
20260506181713 15 0 0.0 0.0 0.00 1.63 1.63 79 1007.8
20260506181003 16 0 0.0 0.0 0.00 1.63 1.63 78 1007.5
20260506180503 16 67 0.0 4.8 0.00 1.63 1.63 78 1007.4
20260506180004 16 67 0.0 4.8 0.00 1.63 1.63 78 1007.3
20260506175504 16 75 0.0 8.0 0.00 1.63 1.63 77 1007.2
20260506175004 16 68 0.0 8.0 0.00 1.63 1.63 77 1007.2
20260506174503 16 48 0.0 4.8 0.00 1.63 1.63 77 1007.1
20260506174004 16 74 0.0 8.0 0.00 1.63 1.63 77 1007.1
20260506173717 16 73 0.0 8.0 0.00 1.63 1.63 77 1007.0
20260506173004 16 79 1.6 11.3 0.00 1.63 1.63 76 1006.8
20260506172504 16 88 3.2 22.5 0.00 1.63 1.63 75 1006.8
20260506172003 17 81 3.2 22.5 0.00 1.63 1.63 74 1006.8
20260506171503 17 79 4.8 14.5 0.00 1.63 1.63 74 1006.8
20260506171003 17 85 3.2 12.9 0.00 1.63 1.63 73 1006.7
20260506170504 17 80 4.8 20.9 0.00 1.63 1.63 73 1006.7
20260506170003 17 77 6.4 20.9 0.00 1.63 1.63 72 1006.6
20260506165504 18 79 8.0 19.3 0.00 1.63 1.63 71 1006.6
20260506165004 18 79 4.8 17.7 0.00 1.63 1.63 69 1006.4
20260506164503 18 60 1.6 11.3 0.00 1.63 1.63 62 1006.2
20260506164004 18 63 1.6 11.3 0.00 1.63 1.63 61 1006.0
20260506163503 18 71 1.6 11.3 0.00 1.63 1.63 60 1006.0
20260506163216 18 73 1.6 16.1 0.00 1.63 1.63 63 1006.0
20260506162713 18 77 3.2 16.1 0.00 1.63 1.63 61 1006.0
20260506162003 19 76 1.6 9.7 0.00 1.63 1.63 60 1005.9
20260506161503 19 39 0.0 12.9 0.00 1.63 1.63 61 1005.9
20260506161003 19 48 1.6 12.9 0.00 1.63 1.63 59 1005.8
20260506160504 20 13 1.6 9.7 0.00 1.63 1.63 59 1005.8
20260506160213 20 9 1.6 9.7 0.00 1.63 1.63 59 1005.8
20260506155716 20 348 1.6 9.7 0.00 1.63 1.63 59 1005.7
20260506155003 20 334 3.2 9.7 0.00 1.63 1.63 61 1005.7
20260506154503 20 330 3.2 12.9 0.00 1.63 1.63 61 1005.7
20260506154215 19 328 4.8 12.9 0.00 1.63 1.63 61 1005.7
20260506153503 19 321 6.4 14.5 0.00 1.63 1.63 61 1005.7
20260506153216 19 321 6.4 14.5 0.00 1.63 1.63 62 1005.8
20260506152503 19 323 4.8 12.9 0.00 1.63 1.63 63 1006.0
20260506152003 20 324 3.2 12.9 0.00 1.63 1.63 64 1006.1
20260506151715 20 327 1.6 9.7 0.00 1.63 1.63 65 1006.1
20260506151003 19 332 3.2 9.7 0.00 1.63 1.63 64 1006.1
20260506150504 19 328 3.2 9.7 0.00 1.63 1.63 64 1006.3
20260506150004 19 323 4.8 9.7 0.00 1.63 1.63 67 1006.4
20260506145503 18 324 4.8 9.7 0.00 1.63 1.63 67 1006.4
20260506145003 18 329 3.2 9.7 0.00 1.63 1.63 69 1006.4
20260506144503 18 327 4.8 17.7 0.00 1.63 1.63 70 1006.4
20260506144003 18 319 6.4 24.1 0.00 1.63 1.63 67 1006.3
20260506143714 18 317 4.8 24.1 0.00 1.63 1.63 67 1006.4
20260506143004 19 325 0.0 6.4 0.00 1.63 1.63 64 1006.4
20260506142504 19 325 0.0 6.4 0.00 1.63 1.63 64 1006.4
20260506142003 19 322 0.0 6.4 0.00 1.63 1.63 64 1006.4
20260506141715 19 322 0.0 6.4 0.00 1.63 1.63 64 1006.4
20260506141003 19 115 0.0 3.2 0.00 1.63 1.63 67 1006.4
20260506140503 18 109 0.0 3.2 0.00 1.63 1.63 66 1006.5
20260506140004 19 88 0.0 4.8 0.00 1.63 1.63 66 1006.5
20260506135712 19 85 0.0 4.8 0.00 1.63 1.63 65 1006.5
20260506135003 19 81 0.0 6.4 0.00 1.63 1.63 64 1006.5
20260506134503 19 335 0.0 6.4 0.00 1.63 1.63 64 1006.4
20260506134003 19 322 0.0 8.0 0.00 1.63 1.63 64 1006.6
20260506133715 19 330 0.0 8.0 0.00 1.63 1.63 64 1006.6
20260506133003 20 34 0.0 4.8 0.00 1.63 1.63 65 1006.6
20260506132503 20 74 0.0 11.3 0.00 1.63 1.63 67 1006.6
20260506132003 19 77 0.0 11.3 0.00 1.63 1.63 66 1006.7
20260506131503 19 70 0.0 8.0 0.00 1.63 1.63 68 1006.7
20260506131003 19 77 1.6 16.1 0.00 1.63 1.63 68 1006.7
20260506130503 19 77 1.6 16.1 0.00 1.63 1.63 70 1006.7
20260506130004 19 72 0.0 11.3 0.00 1.63 1.63 69 1006.7
20260506125713 20 38 0.0 4.8 0.00 1.63 1.63 69 1006.8
20260506125004 19 27 0.0 9.7 0.00 1.63 1.63 71 1006.8
20260506124714 19 31 0.0 9.7 0.00 1.63 1.63 71 1006.8
20260506124003 19 324 3.2 11.3 0.00 1.63 1.63 73 1006.9
20260506123503 19 330 1.6 11.3 0.00 1.63 1.63 69 1006.9
20260506123003 19 94 0.0 8.0 0.00 1.63 1.63 70 1006.9
20260506122503 19 121 0.0 6.4 0.00 1.63 1.63 67 1006.8
20260506122004 18 227 0.0 3.2 0.00 1.63 1.63 69 1006.8
20260506121717 18 0 0.0 0.0 0.00 1.63 1.63 67 1006.8
20260506121003 18 268 0.0 6.4 0.00 1.63 1.63 70 1006.8
20260506120504 18 222 1.6 8.0 0.00 1.63 1.63 69 1006.9
20260506120004 18 188 1.6 8.0 0.00 1.63 1.63 72 1006.9
20260506115503 18 119 0.0 4.8 0.00 1.63 1.63 72 1006.9
20260506115003 17 109 0.0 9.7 0.00 1.63 1.63 72 1006.9
20260506114503 17 109 0.0 9.7 0.00 1.63 1.63 71 1006.9
20260506114003 18 0 0.0 0.0 0.00 1.63 1.63 74 1006.9
20260506113503 17 119 0.0 4.8 0.00 1.63 1.63 74 1006.9
20260506113003 17 114 0.0 4.8 0.00 1.63 1.63 74 1006.9
20260506112503 17 113 1.6 8.0 0.00 1.63 1.63 75 1006.9
20260506112003 17 113 0.0 8.0 0.00 1.63 1.63 76 1006.9
20260506111717 17 0 0.0 0.0 0.00 1.63 1.63 78 1006.9
20260506111003 16 129 0.0 6.4 0.00 1.63 1.63 77 1007.1
20260506110713 16 128 0.0 6.4 0.00 1.63 1.63 78 1007.1
20260506110004 16 167 0.0 8.0 0.00 1.63 1.63 79 1007.2
20260506105503 16 176 0.0 4.8 0.00 1.63 1.63 78 1007.2
20260506105003 16 191 1.6 6.4 0.00 1.63 1.63 78 1007.3
20260506104504 16 177 1.6 6.4 0.00 1.63 1.63 80 1007.3
20260506104003 16 145 0.0 6.4 0.00 1.63 1.63 80 1007.3
20260506103503 16 6 0.0 1.6 0.00 1.63 1.63 80 1007.3
20260506103004 16 137 1.6 6.4 0.00 1.63 1.63 80 1007.2
20260506102504 15 138 1.6 6.4 0.00 1.63 1.63 80 1007.1
20260506102004 15 144 0.0 4.8 0.00 1.63 1.63 80 1007.2
20260506101503 15 144 0.0 4.8 0.00 1.63 1.63 80 1007.2
20260506101003 15 146 0.0 4.8 0.00 1.63 1.63 79 1007.2
20260506100503 14 160 0.0 4.8 0.00 1.63 1.63 78 1007.3
20260506100003 14 285 0.0 4.8 0.00 1.63 1.63 71 1007.3
20260506095503 13 284 0.0 4.8 0.00 1.63 1.63 67 1007.3
20260506095003 13 285 0.0 4.8 0.00 1.63 1.63 62 1007.3
20260506094716 13 321 0.0 6.4 0.03 1.63 1.63 64 1007.3
20260506094003 12 322 1.6 6.4 0.03 1.63 1.63 57 1007.2
20260506093503 12 283 0.0 9.7 0.03 1.63 1.63 58 1007.3
20260506093215 12 269 1.6 9.7 0.05 1.63 1.63 53 1007.3
20260506092503 12 296 1.6 9.7 0.05 1.65 1.63 54 1007.3
20260506092003 11 304 1.6 9.7 0.05 1.65 1.63 52 1007.4
20260506091503 11 298 1.6 14.5 0.08 1.65 1.63 48 1007.4
20260506091003 11 303 1.6 14.5 0.13 1.65 1.63 47 1007.4
20260506090503 11 303 1.6 12.9 0.15 1.65 1.63 46 1007.5
20260506090003 11 293 1.6 8.0 0.15 1.65 1.63 46 1007.5
20260506085504 11 293 0.0 8.0 0.18 1.65 1.63 48 1007.5
20260506085004 11 303 0.0 6.4 0.20 1.65 1.63 46 1007.5
20260506084503 11 307 0.0 6.4 0.20 1.63 1.60 46 1007.5
20260506084003 11 320 0.0 8.0 0.20 1.63 1.60 46 1007.6
20260506083503 11 318 0.0 8.0 0.23 1.63 1.60 47 1007.6
20260506083003 11 313 0.0 6.4 0.23 1.60 1.57 47 1007.6
20260506082503 10 304 0.0 3.2 0.23 1.57 1.55 46 1007.6
20260506082216 10 305 0.0 3.2 0.25 1.57 1.55 46 1007.6
20260506081503 10 311 0.0 3.2 0.25 1.55 1.55 46 1007.7
20260506081003 10 314 0.0 1.6 0.23 1.52 1.50 46 1007.7
20260506080503 10 0 0.0 0.0 0.23 1.50 1.47 46 1007.7
20260506080213 10 0 0.0 0.0 0.23 1.47 1.45 46 1007.8